Lexington, KY

6:31 AM EDT on March 28, 2017 (GMT -0400)
Blue Grass

Weather History for KLEX - October, 2010

Change the Weather History Date:

Wednesday, October 20, 2010

  Actual Average Record
Temperature  
Mean Temperature 55 °F 56 °F  
Max Temperature 69 °F 66 °F 86 °F (1963)
Min Temperature 40 °F 45 °F 25 °F (1972)
Degree Days  
Heating Degree Days 10 10  
Month to date heating degree days 115 145  
Since 1 July heating degree days 144 199  
Cooling Degree Days 0 0  
Month to date cooling degree days 12 23  
Year to date cooling degree days 1577 1186  
Growing Degree Days 4 (Base 50)    
Moisture  
Dew Point 31 °F    
Average Humidity 49    
Maximum Humidity 73    
Minimum Humidity 24    
Precipitation  
Precipitation 0.00 in 0.09 in 1.75 in (1993)
Month to date precipitation 0.24 1.96  
Year to date precipitation 30.09 36.54  
Snow  
Snow 0.00 in 0.00 in T in (1992)
Month to date snowfall 0.0 0.0  
Since 1 July snowfall 0.0 0.0  
Since 1 September snowfall 0.0 0.0  
Snow Depth 0.00 in    
Sea Level Pressure  
Sea Level Pressure 29.93 in    
Wind  
Wind Speed 5 mph (SW)    
Max Wind Speed 16 mph    
Max Gust Speed 24 mph    
Visibility 10 miles    
Events Rain    
T = Trace of Precipitation, MM = Missing Value Source: NWS Daily Summary

Daily Weather History Graph

Daily Weather History Graph

Search for Another Location

Airport or City:

Trip Planner

Search our weather history database for the weather conditions in past years. The results will help you decide how hot, cold, wet, or windy it might be!

Date:

Astronomy

Oct. 20, 2010 Rise Set
Actual Time 7:51 AM EDT 6:53 PM EDT
Civil Twilight 7:25 AM EDT 7:20 PM EDT
Nautical Twilight 6:54 AM EDT 7:51 PM EDT
Astronomical Twilight 6:23 AM EDT 8:21 PM EDT
Moon 5:26 PM EDT (10/20) 5:34 AM EDT (10/20)
Length of Visible Light 11h 55m
Length of Day
11h 02m
Waxing Gibbous, 95% of the Moon is Illuminated
Oct 20
Waxing Gibbous
Oct 22
Full
Oct 30
Last Quarter
Nov 6
New
Nov 13
First Quarter

Hourly Weather History & Observations

Time (EDT) Temp. Dew Point Humidity Pressure Visibility Wind Dir Wind Speed Gust Speed Precip Events Conditions
12:54 AM 46.9 °F 33.1 °F 59% 29.96 in 10.0 mi Calm Calm - N/A   Clear
1:54 AM 48.9 °F 33.1 °F 54% 29.95 in 10.0 mi Calm Calm - N/A   Mostly Cloudy
2:54 AM 48.0 °F 35.1 °F 61% 29.96 in 10.0 mi Calm Calm - N/A   Mostly Cloudy
3:54 AM 48.0 °F 35.1 °F 61% 29.95 in 10.0 mi Calm Calm - N/A   Clear
4:54 AM 46.9 °F 35.1 °F 63% 29.95 in 10.0 mi NE 3.5 mph - N/A   Clear
5:54 AM 46.9 °F 33.1 °F 59% 29.96 in 10.0 mi Calm Calm - N/A   Clear
6:54 AM 43.0 °F 34.0 °F 71% 29.96 in 10.0 mi Calm Calm - N/A   Clear
7:54 AM 41.0 °F 34.0 °F 76% 29.97 in 10.0 mi Calm Calm - N/A   Clear
8:54 AM 46.0 °F 36.0 °F 68% 29.98 in 10.0 mi Calm Calm - N/A   Clear
9:54 AM 54.0 °F 37.0 °F 53% 29.98 in 10.0 mi Calm Calm - N/A   Clear
10:54 AM 59.0 °F 32.0 °F 36% 29.98 in 10.0 mi WSW 3.5 mph - N/A   Clear
11:54 AM 61.0 °F 30.0 °F 31% 29.98 in 10.0 mi WSW 5.8 mph - N/A   Clear
12:54 PM 63.0 °F 28.9 °F 28% 29.97 in 10.0 mi Variable 5.8 mph - N/A   Clear
1:54 PM 66.0 °F 28.0 °F 24% 29.94 in 10.0 mi West 9.2 mph - N/A   Clear
2:54 PM 66.0 °F 27.0 °F 23% 29.92 in 10.0 mi WSW 11.5 mph - 0.00 in Rain Light Rain
3:54 PM 66.9 °F 26.1 °F 21% 29.90 in 10.0 mi West 4.6 mph - 0.00 in Rain Light Rain
4:54 PM 68.0 °F 27.0 °F 21% 29.88 in 10.0 mi SSW 11.5 mph - 0.00 in   Clear
5:54 PM 66.0 °F 28.0 °F 24% 29.87 in 10.0 mi SW 8.1 mph 16.1 mph N/A   Clear
6:54 PM 62.1 °F 28.0 °F 28% 29.87 in 10.0 mi SW 8.1 mph - N/A   Clear
7:54 PM 57.0 °F 28.9 °F 34% 29.88 in 10.0 mi SSW 8.1 mph - N/A   Clear
8:54 PM 55.0 °F 30.0 °F 38% 29.88 in 10.0 mi SW 8.1 mph - N/A   Clear
9:54 PM 53.6 °F 30.2 °F 41% 29.87 in 10.0 mi SSW 9.2 mph - N/A   Clear
10:54 PM 52.0 °F 30.0 °F 43% 29.87 in 10.0 mi SSW 9.2 mph - N/A   Clear
11:54 PM 52.0 °F 30.0 °F 43% 29.87 in 10.0 mi SSW 9.2 mph - N/A   Clear